JAL2005 RPLL-RJBB

Flight info

Callsign JAL2005
Flight time 3h 19m
Altitude 41000
Route CAB2P CAB N884 ALBAX Y533 AZAMA Y579 ONC B597 RURIK Y53 MADOG B597 SUC Y53 NIXOV
Aircraft A359/H-SDE2E3GHIJ3J4J5LM1ORWXY/LB1D1

Departure

Time 2026-05-04 05:31
Airport Ninoy Aquino International Airport (RPLL)

Arrival

Time 2026-05-04 08:50
Airport Kansai International Airport (RJBB)
Time Latitude Longitude Altitude Speed Heading
2026-05-04 05:01 14.50985 121.01450 88 ft 0 kts 250°
2026-05-04 05:20 14.50987 121.01453 89 ft 2 kts 249°
2026-05-04 05:20 14.50994 121.01467 89 ft 2 kts 231°
2026-05-04 05:21 14.51004 121.01478 89 ft 2 kts 216°
2026-05-04 05:21 14.51017 121.01485 89 ft 2 kts 202°
2026-05-04 05:21 14.51031 121.01490 89 ft 2 kts 188°
2026-05-04 05:21 14.51045 121.01491 89 ft 2 kts 174°
2026-05-04 05:22 14.51060 121.01488 89 ft 2 kts 159°
2026-05-04 05:22 14.51074 121.01481 89 ft 2 kts 145°
2026-05-04 05:22 14.51085 121.01471 89 ft 2 kts 132°
2026-05-04 05:22 14.51087 121.01469 89 ft 0 kts 131°
2026-05-04 05:24 14.51078 121.01479 89 ft 3 kts 135°
2026-05-04 05:24 14.51044 121.01511 89 ft 9 kts 137°
2026-05-04 05:25 14.50991 121.01563 89 ft 11 kts 135°
2026-05-04 05:25 14.50924 121.01633 89 ft 16 kts 134°
2026-05-04 05:25 14.50892 121.01739 89 ft 18 kts 65°
2026-05-04 05:25 14.50905 121.01761 89 ft 0 kts 52°
2026-05-04 05:26 14.50910 121.01766 89 ft 2 kts 52°
2026-05-04 05:26 14.50929 121.01793 89 ft 6 kts 55°
2026-05-04 05:26 14.50959 121.01843 89 ft 11 kts 58°
2026-05-04 05:27 14.51046 121.01994 89 ft 30 kts 59°
2026-05-04 05:28 14.51396 121.02874 89 ft 20 kts 187°
2026-05-04 05:29 14.51309 121.02763 89 ft 27 kts 243°
2026-05-04 05:29 14.51064 121.02310 89 ft 115 kts 240°
2026-05-04 05:29 14.50551 121.01385 121 ft 179 kts 240°
2026-05-04 05:29 14.49886 121.00177 614 ft 198 kts 241°
2026-05-04 05:31 14.48485 120.90253 4459 ft 270 kts 322°
2026-05-04 05:31 14.49948 120.89047 5266 ft 273 kts 321°
2026-05-04 05:32 14.51423 120.87795 6078 ft 276 kts 320°
2026-05-04 05:32 14.53018 120.86729 6846 ft 279 kts 342°
2026-05-04 05:32 14.54926 120.86616 7623 ft 283 kts
2026-05-04 05:33 14.58792 120.87434 9170 ft 289 kts 10°
2026-05-04 05:33 14.60753 120.87829 9908 ft 292 kts
2026-05-04 05:33 14.62750 120.88205 10593 ft 297 kts
2026-05-04 05:33 14.64810 120.88573 11239 ft 304 kts
2026-05-04 05:34 14.66879 120.88934 11935 ft 308 kts
2026-05-04 05:34 14.69008 120.89296 12656 ft 311 kts
2026-05-04 05:34 14.71145 120.89655 13291 ft 318 kts
2026-05-04 05:34 14.73354 120.90023 13669 ft 334 kts
2026-05-04 05:35 14.75688 120.90411 14101 ft 347 kts
2026-05-04 05:35 14.78099 120.90814 14766 ft 352 kts
2026-05-04 05:35 14.80496 120.91215 15486 ft 355 kts
2026-05-04 05:35 14.82918 120.91618 16192 ft 358 kts
2026-05-04 05:36 14.85379 120.92028 16891 ft 361 kts
2026-05-04 05:36 14.87863 120.92442 17567 ft 365 kts
2026-05-04 05:36 14.90383 120.92861 18233 ft 368 kts
2026-05-04 05:36 14.92902 120.93280 18920 ft 371 kts
2026-05-04 05:37 14.95425 120.93700 19610 ft 373 kts
2026-05-04 05:37 14.97996 120.94126 20299 ft 375 kts
2026-05-04 05:37 15.00573 120.94554 20970 ft 377 kts
2026-05-04 05:38 15.05729 120.95409 22259 ft 381 kts 10°
2026-05-04 05:38 15.08370 120.95850 22871 ft 385 kts 10°
2026-05-04 05:38 15.10986 120.96287 23451 ft 388 kts 10°
2026-05-04 05:38 15.13648 120.96729 24022 ft 392 kts 10°
2026-05-04 05:39 15.16360 120.97179 24574 ft 395 kts 11°
2026-05-04 05:39 15.21811 120.98085 25611 ft 402 kts 11°
2026-05-04 05:39 15.24575 120.98545 26103 ft 406 kts 11°
2026-05-04 05:40 15.30168 120.99475 27032 ft 412 kts 11°
2026-05-04 05:40 15.32990 120.99944 27472 ft 416 kts 11°
2026-05-04 05:40 15.35836 121.00417 27899 ft 419 kts 11°
2026-05-04 05:41 15.38714 121.00896 28313 ft 422 kts 11°
2026-05-04 05:41 15.41610 121.01379 28715 ft 425 kts 12°
2026-05-04 05:41 15.44533 121.01943 29110 ft 427 kts 15°
2026-05-04 05:41 15.47395 121.02705 29491 ft 429 kts 19°
2026-05-04 05:42 15.50205 121.03673 29862 ft 430 kts 22°
2026-05-04 05:42 15.52950 121.04846 30221 ft 432 kts 27°
2026-05-04 05:42 15.55679 121.06173 30580 ft 434 kts 27°
2026-05-04 05:42 15.58388 121.07519 30925 ft 436 kts 28°
2026-05-04 05:43 15.61128 121.08885 31264 ft 438 kts 28°
2026-05-04 05:43 15.63873 121.10252 31595 ft 440 kts 28°
2026-05-04 05:43 15.66633 121.11626 31920 ft 442 kts 28°
2026-05-04 05:45 15.86245 121.21380 33949 ft 455 kts 28°
2026-05-04 05:45 15.89120 121.22810 34197 ft 457 kts 28°
2026-05-04 05:47 16.09155 121.32790 36242 ft 456 kts 28°
2026-05-04 05:47 16.12026 121.34218 36528 ft 456 kts 28°
2026-05-04 05:47 16.14867 121.35626 36788 ft 455 kts 28°
2026-05-04 05:48 16.17733 121.37049 37032 ft 455 kts 28°
2026-05-04 05:48 16.20551 121.38451 37265 ft 455 kts 28°
2026-05-04 05:48 16.23423 121.39881 37495 ft 455 kts 28°
2026-05-04 05:48 16.26243 121.41288 37713 ft 455 kts 28°
2026-05-04 05:49 16.29108 121.42718 37932 ft 455 kts 28°
2026-05-04 05:49 16.31931 121.44128 38142 ft 455 kts 28°
2026-05-04 05:49 16.34778 121.45551 38345 ft 455 kts 28°
2026-05-04 05:49 16.37635 121.46980 38542 ft 455 kts 28°
2026-05-04 05:51 16.57550 121.56953 39629 ft 458 kts 28°
2026-05-04 05:51 16.60440 121.58402 39746 ft 459 kts 28°
2026-05-04 05:52 16.63284 121.59829 39859 ft 460 kts 28°
2026-05-04 05:52 16.66172 121.61279 39973 ft 460 kts 28°
2026-05-04 05:52 16.69055 121.62726 40084 ft 461 kts 28°
2026-05-04 05:52 16.71908 121.64158 40186 ft 462 kts 28°
2026-05-04 05:53 16.74822 121.65623 40289 ft 462 kts 28°
2026-05-04 05:54 16.95079 121.75864 40908 ft 467 kts 29°
2026-05-04 05:55 17.00872 121.78958 40917 ft 469 kts 30°
2026-05-04 05:55 17.06659 121.82056 40919 ft 474 kts 29°
2026-05-04 05:56 17.12557 121.85196 40919 ft 478 kts 29°
2026-05-04 05:56 17.18478 121.88329 40920 ft 479 kts 29°
2026-05-04 05:57 17.24381 121.91461 40920 ft 479 kts 29°
2026-05-04 05:57 17.30295 121.94607 40921 ft 479 kts 29°
2026-05-04 05:58 17.36218 121.97763 40920 ft 479 kts 29°
2026-05-04 05:58 17.42138 122.00919 40921 ft 479 kts 29°
2026-05-04 05:59 17.48054 122.04077 40921 ft 479 kts 29°
2026-05-04 05:59 17.53984 122.07243 40921 ft 479 kts 29°
2026-05-04 06:00 17.59881 122.10394 40921 ft 479 kts 29°
2026-05-04 06:00 17.65789 122.13553 40921 ft 479 kts 29°
2026-05-04 06:01 17.71709 122.16719 40909 ft 479 kts 29°
2026-05-04 06:03 17.95478 122.29282 40894 ft 480 kts 28°
2026-05-04 06:05 18.22287 122.43211 40894 ft 480 kts 28°
2026-05-04 06:06 18.28237 122.46310 40894 ft 480 kts 28°
2026-05-04 06:06 18.34200 122.49424 40894 ft 480 kts 28°
2026-05-04 06:07 18.40151 122.52534 40894 ft 480 kts 28°
2026-05-04 06:07 18.46098 122.55644 40894 ft 480 kts 28°
2026-05-04 06:08 18.52047 122.58759 40894 ft 480 kts 28°
2026-05-04 06:08 18.57989 122.61872 40894 ft 480 kts 28°
2026-05-04 06:09 18.63945 122.64995 40894 ft 480 kts 28°
2026-05-04 06:11 18.87721 122.77546 40894 ft 480 kts 28°
2026-05-04 06:13 19.11332 122.89992 40895 ft 474 kts 27°
2026-05-04 06:14 19.31800 123.00779 40895 ft 468 kts 27°
2026-05-04 06:15 19.37609 123.03854 40895 ft 467 kts 27°
2026-05-04 06:15 19.43366 123.06905 40894 ft 466 kts 27°
2026-05-04 06:16 19.49147 123.09972 40894 ft 464 kts 27°
2026-05-04 06:16 19.54878 123.13014 40894 ft 463 kts 27°
2026-05-04 06:17 19.60616 123.16061 40894 ft 463 kts 27°
2026-05-04 06:17 19.66353 123.19110 40894 ft 463 kts 27°
2026-05-04 06:18 19.72063 123.22148 40894 ft 463 kts 27°
2026-05-04 06:20 19.95006 123.34382 40894 ft 463 kts 27°
2026-05-04 06:21 20.09325 123.42036 40923 ft 463 kts 27°
2026-05-04 06:22 20.15050 123.45089 40970 ft 463 kts 27°
2026-05-04 06:25 20.55099 123.66590 41057 ft 462 kts 27°
2026-05-04 06:26 20.60802 123.69692 41057 ft 462 kts 27°
2026-05-04 06:26 20.66531 123.72793 41056 ft 462 kts 27°
2026-05-04 06:27 20.80824 123.80513 41056 ft 462 kts 27°
2026-05-04 06:28 20.86529 123.83595 41056 ft 462 kts 27°
2026-05-04 06:28 20.92262 123.86694 41056 ft 462 kts 27°
2026-05-04 06:29 20.97961 123.89777 41056 ft 462 kts 27°
2026-05-04 06:29 21.03712 123.92894 41055 ft 465 kts 28°
2026-05-04 06:30 21.09495 123.96034 41055 ft 469 kts 28°
2026-05-04 06:30 21.15290 123.99167 41056 ft 472 kts 28°
2026-05-04 06:31 21.21136 124.02327 41056 ft 473 kts 28°
2026-05-04 06:31 21.27006 124.05506 41056 ft 473 kts 28°
2026-05-04 06:33 21.50407 124.18227 41056 ft 473 kts 28°
2026-05-04 06:34 21.56247 124.21409 41056 ft 473 kts 28°
2026-05-04 06:34 21.62092 124.24596 41056 ft 473 kts 28°
2026-05-04 06:36 21.85455 124.37368 41056 ft 473 kts 28°
2026-05-04 06:37 21.91295 124.40568 41056 ft 473 kts 28°
2026-05-04 06:37 21.97128 124.43765 41056 ft 473 kts 28°
2026-05-04 06:38 22.02957 124.46965 41056 ft 473 kts 28°
2026-05-04 06:40 22.26322 124.59788 41057 ft 473 kts 28°
2026-05-04 06:40 22.32181 124.63017 41057 ft 473 kts 28°
2026-05-04 06:41 22.37995 124.66232 41057 ft 473 kts 28°
2026-05-04 06:41 22.43840 124.69491 41057 ft 473 kts 28°
2026-05-04 06:42 22.49663 124.72727 41056 ft 473 kts 28°
2026-05-04 06:44 22.73007 124.85672 41056 ft 473 kts 28°
2026-05-04 06:44 22.78824 124.88903 41056 ft 474 kts 29°
2026-05-04 06:45 22.84667 124.92154 41056 ft 475 kts 29°
2026-05-04 06:45 22.90540 124.95424 41056 ft 476 kts 29°
2026-05-04 06:46 22.96432 124.98710 41056 ft 478 kts 29°
2026-05-04 06:46 23.02351 125.02013 41056 ft 481 kts 29°
2026-05-04 06:48 23.26089 125.15253 41063 ft 483 kts 29°
2026-05-04 06:50 23.49921 125.28629 41079 ft 483 kts 29°
2026-05-04 06:51 23.55701 125.32237 41082 ft 482 kts 34°
2026-05-04 06:51 23.61091 125.36472 41083 ft 480 kts 40°
2026-05-04 06:52 23.66162 125.41138 41083 ft 480 kts 42°
2026-05-04 06:52 23.71240 125.45888 41083 ft 480 kts 42°
2026-05-04 06:53 23.76271 125.50589 41083 ft 480 kts 42°
2026-05-04 06:53 23.81313 125.55296 41083 ft 480 kts 42°
2026-05-04 06:54 23.86386 125.60034 41083 ft 480 kts 42°
2026-05-04 06:54 23.91439 125.64758 41083 ft 480 kts 42°
2026-05-04 06:55 23.96452 125.69473 41083 ft 480 kts 42°
2026-05-04 06:55 24.01524 125.74246 41083 ft 480 kts 42°
2026-05-04 06:57 24.21709 125.93168 41083 ft 480 kts 42°
2026-05-04 06:58 24.26742 125.97901 41083 ft 480 kts 42°
2026-05-04 06:58 24.31799 126.02666 41083 ft 480 kts 42°
2026-05-04 06:59 24.36848 126.07431 41083 ft 480 kts 42°
2026-05-04 06:59 24.41882 126.12186 41083 ft 480 kts 42°
2026-05-04 07:01 24.62016 126.31263 41065 ft 480 kts 42°
2026-05-04 07:02 24.67049 126.36043 41060 ft 480 kts 42°
2026-05-04 07:02 24.72095 126.40843 41059 ft 480 kts 42°
2026-05-04 07:03 24.77111 126.45620 41058 ft 480 kts 42°
2026-05-04 07:03 24.82131 126.50405 41058 ft 480 kts 42°
2026-05-04 07:04 24.87168 126.55212 41058 ft 480 kts 42°
2026-05-04 07:04 24.92208 126.60027 41058 ft 480 kts 42°
2026-05-04 07:05 24.97238 126.64838 41057 ft 480 kts 42°
2026-05-04 07:05 25.02283 126.69697 41057 ft 486 kts 42°
2026-05-04 07:06 25.09898 126.77036 41069 ft 490 kts 41°
2026-05-04 07:07 25.15064 126.81973 41076 ft 489 kts 41°
2026-05-04 07:09 25.35495 127.01604 41083 ft 489 kts 41°
2026-05-04 07:09 25.40594 127.06527 41083 ft 488 kts 41°
2026-05-04 07:10 25.45713 127.11476 41083 ft 488 kts 41°
2026-05-04 07:12 25.66019 127.31170 41083 ft 486 kts 41°
2026-05-04 07:12 25.71068 127.36081 41083 ft 486 kts 41°
2026-05-04 07:13 25.76130 127.41009 41083 ft 486 kts 41°
2026-05-04 07:13 25.81220 127.45972 41083 ft 486 kts 41°
2026-05-04 07:14 25.93879 127.58337 41083 ft 486 kts 41°
2026-05-04 07:15 25.98928 127.63277 41083 ft 486 kts 41°
2026-05-04 07:15 26.03962 127.68221 41083 ft 486 kts 42°
2026-05-04 07:16 26.09031 127.73210 41085 ft 486 kts 42°
2026-05-04 07:16 26.14121 127.78119 41092 ft 486 kts 39°
2026-05-04 07:17 26.19550 127.82546 41101 ft 487 kts 33°
2026-05-04 07:17 26.25251 127.86556 41111 ft 487 kts 32°
2026-05-04 07:18 26.31012 127.90558 41119 ft 487 kts 32°
2026-05-04 07:18 26.36715 127.94534 41122 ft 487 kts 32°
2026-05-04 07:19 26.42442 127.98540 41119 ft 487 kts 32°
2026-05-04 07:19 26.48147 128.02537 41120 ft 487 kts 32°
2026-05-04 07:20 26.53859 128.06546 41129 ft 487 kts 32°
2026-05-04 07:20 26.59559 128.10550 41143 ft 487 kts 32°
2026-05-04 07:22 26.82420 128.26659 41130 ft 487 kts 32°
2026-05-04 07:23 26.88129 128.30693 41109 ft 487 kts 32°
2026-05-04 07:23 26.93830 128.34727 41092 ft 490 kts 32°
2026-05-04 07:24 26.99573 128.38805 41086 ft 495 kts 31°
2026-05-04 07:24 27.05420 128.42958 41085 ft 496 kts 31°
2026-05-04 07:26 27.28635 128.59424 41085 ft 496 kts 31°
2026-05-04 07:27 27.34477 128.63596 41085 ft 496 kts 31°
2026-05-04 07:27 27.40261 128.67773 41084 ft 496 kts 33°
2026-05-04 07:28 27.45752 128.72430 41084 ft 497 kts 39°
2026-05-04 07:28 27.50933 128.77576 41084 ft 498 kts 41°
2026-05-04 07:29 27.56058 128.82754 41085 ft 498 kts 40°
2026-05-04 07:29 27.61186 128.87924 41085 ft 498 kts 40°
2026-05-04 07:30 27.66333 128.93109 41085 ft 498 kts 40°
2026-05-04 07:30 27.71486 128.98300 41085 ft 497 kts 40°
2026-05-04 07:31 27.76612 129.03468 41085 ft 497 kts 40°
2026-05-04 07:33 27.97170 129.24240 41085 ft 497 kts 40°
2026-05-04 07:33 28.02312 129.29442 41084 ft 497 kts 40°
2026-05-04 07:34 28.07432 129.34625 41084 ft 497 kts 40°
2026-05-04 07:34 28.12564 129.39818 41085 ft 496 kts 40°
2026-05-04 07:35 28.17715 129.45024 41085 ft 496 kts 40°
2026-05-04 07:35 28.22836 129.50211 41085 ft 496 kts 40°
2026-05-04 07:36 28.27970 129.55405 41085 ft 496 kts 40°
2026-05-04 07:38 28.49467 129.74663 41085 ft 493 kts 26°
2026-05-04 07:38 28.55571 129.78218 41085 ft 492 kts 25°
2026-05-04 07:39 28.61649 129.81688 41085 ft 492 kts 25°
2026-05-04 07:39 28.67742 129.85194 41085 ft 492 kts 25°
2026-05-04 07:40 28.73828 129.88718 41085 ft 492 kts 25°
2026-05-04 07:40 28.79882 129.92241 41085 ft 492 kts 25°
2026-05-04 07:41 28.85965 129.95783 41085 ft 492 kts 25°
2026-05-04 07:41 28.92065 129.99333 41085 ft 492 kts 25°
2026-05-04 07:42 28.98135 130.02869 41085 ft 492 kts 25°
2026-05-04 07:42 29.04206 130.06410 41085 ft 491 kts 25°
2026-05-04 07:43 29.10268 130.09949 41085 ft 490 kts 25°
2026-05-04 07:43 29.16324 130.13474 41084 ft 489 kts 25°
2026-05-04 07:44 29.22336 130.16986 41085 ft 489 kts 25°
2026-05-04 07:44 29.28389 130.20564 41084 ft 489 kts 27°
2026-05-04 07:45 29.34192 130.24582 41085 ft 490 kts 31°
2026-05-04 07:45 29.39902 130.28848 41084 ft 491 kts 31°
2026-05-04 07:46 29.45585 130.33112 41083 ft 491 kts 31°
2026-05-04 07:46 29.51273 130.37370 41081 ft 491 kts 31°
2026-05-04 07:47 29.56975 130.41640 41073 ft 490 kts 31°
2026-05-04 07:49 29.79732 130.58734 41058 ft 491 kts 31°
2026-05-04 07:49 29.85455 130.63048 41056 ft 491 kts 31°
2026-05-04 07:50 29.91111 130.67326 41057 ft 491 kts 32°
2026-05-04 07:50 29.96800 130.71648 41059 ft 491 kts 32°
2026-05-04 07:51 30.02481 130.75952 41057 ft 491 kts 32°
2026-05-04 07:51 30.08158 130.80272 41057 ft 491 kts 32°
2026-05-04 07:52 30.13872 130.84608 41057 ft 491 kts 31°
2026-05-04 07:52 30.19551 130.88910 41058 ft 490 kts 31°
2026-05-04 07:54 30.42250 131.06218 41058 ft 489 kts 31°
2026-05-04 07:55 30.47905 131.10550 41058 ft 489 kts 31°
2026-05-04 07:55 30.53566 131.14908 41058 ft 489 kts 31°
2026-05-04 07:56 30.59206 131.19255 41058 ft 489 kts 31°
2026-05-04 07:56 30.64857 131.23613 41058 ft 489 kts 31°
2026-05-04 07:57 30.70503 131.27972 41058 ft 489 kts 31°
2026-05-04 07:57 30.76137 131.32329 41058 ft 489 kts 31°
2026-05-04 07:58 30.81770 131.36690 41058 ft 489 kts 31°
2026-05-04 07:58 30.87431 131.41078 41058 ft 489 kts 31°
2026-05-04 07:59 30.93064 131.45454 41058 ft 490 kts 31°
2026-05-04 07:59 30.98705 131.49843 41057 ft 492 kts 31°
2026-05-04 08:00 31.04396 131.54274 41057 ft 494 kts 30°
2026-05-04 08:02 31.27198 131.72092 40990 ft 495 kts 31°
2026-05-04 08:02 31.32891 131.76564 40980 ft 495 kts 31°
2026-05-04 08:03 31.38596 131.81047 40977 ft 495 kts 31°
2026-05-04 08:03 31.44259 131.85498 40976 ft 494 kts 31°
2026-05-04 08:04 31.49978 131.89999 40975 ft 495 kts 31°
2026-05-04 08:04 31.55632 131.94455 40976 ft 495 kts 31°
2026-05-04 08:05 31.61322 131.98946 40975 ft 495 kts 31°
2026-05-04 08:05 31.67030 132.03456 40975 ft 495 kts 31°
2026-05-04 08:06 31.72723 132.07962 40975 ft 495 kts 31°
2026-05-04 08:06 31.78378 132.12445 40975 ft 495 kts 31°
2026-05-04 08:08 32.01123 132.30537 40975 ft 495 kts 31°
2026-05-04 08:11 32.25947 132.52295 40976 ft 497 kts 35°
2026-05-04 08:11 32.33999 132.59935 40976 ft 497 kts 35°
2026-05-04 08:12 32.39355 132.65022 40975 ft 497 kts 36°
2026-05-04 08:12 32.44738 132.70167 40975 ft 497 kts 36°
2026-05-04 08:13 32.50093 132.75290 40975 ft 497 kts 36°
2026-05-04 08:13 32.55487 132.80438 40970 ft 497 kts 36°
2026-05-04 08:14 32.58157 132.82987 40839 ft 498 kts 36°
2026-05-04 08:14 32.60842 132.85553 40589 ft 496 kts 36°
2026-05-04 08:14 32.63507 132.88100 40339 ft 493 kts 36°
2026-05-04 08:16 32.80432 133.07794 38590 ft 493 kts 52°
2026-05-04 08:16 32.82399 133.11084 38343 ft 493 kts 52°
2026-05-04 08:16 32.84371 133.14429 38092 ft 493 kts 52°
2026-05-04 08:17 32.86309 133.17720 37846 ft 493 kts 52°
2026-05-04 08:17 32.88274 133.21053 37544 ft 493 kts 52°
2026-05-04 08:17 32.90250 133.24394 37153 ft 493 kts 52°
2026-05-04 08:17 32.92233 133.27747 36638 ft 493 kts 52°
2026-05-04 08:19 33.05949 133.51003 32556 ft 485 kts 51°
2026-05-04 08:19 33.07885 133.54306 32065 ft 482 kts 51°
2026-05-04 08:20 33.09780 133.57538 31597 ft 479 kts 51°
2026-05-04 08:20 33.11681 133.60768 31144 ft 476 kts 50°
2026-05-04 08:20 33.13578 133.63977 30698 ft 472 kts 50°
2026-05-04 08:20 33.15475 133.67195 30284 ft 468 kts 51°
2026-05-04 08:21 33.17316 133.70342 29882 ft 463 kts 51°
2026-05-04 08:21 33.19147 133.73479 29484 ft 459 kts 51°
2026-05-04 08:21 33.20939 133.76550 29079 ft 455 kts 51°
2026-05-04 08:21 33.22741 133.79640 28687 ft 450 kts 51°
2026-05-04 08:22 33.24511 133.82674 28311 ft 446 kts 51°
2026-05-04 08:22 33.26266 133.85684 27922 ft 442 kts 51°
2026-05-04 08:24 33.38154 134.06151 25268 ft 418 kts 51°
2026-05-04 08:24 33.39798 134.08989 24898 ft 414 kts 51°
2026-05-04 08:24 33.41444 134.11830 24527 ft 411 kts 51°
2026-05-04 08:24 33.43047 134.14601 24161 ft 409 kts 52°
2026-05-04 08:25 33.44657 134.17387 23793 ft 406 kts 52°
2026-05-04 08:25 33.46273 134.20186 23420 ft 403 kts 52°
2026-05-04 08:25 33.47857 134.22932 23049 ft 400 kts 52°
2026-05-04 08:25 33.49426 134.25656 22680 ft 398 kts 52°
2026-05-04 08:26 33.50988 134.28368 22326 ft 395 kts 52°
2026-05-04 08:27 33.62243 134.46034 19732 ft 367 kts 23°
2026-05-04 08:28 33.64606 134.47025 19372 ft 358 kts
2026-05-04 08:28 33.67026 134.47575 19018 ft 355 kts
2026-05-04 08:28 33.69451 134.48070 18657 ft 353 kts
2026-05-04 08:28 33.71856 134.48563 18301 ft 351 kts
2026-05-04 08:29 33.74251 134.49066 17946 ft 348 kts
2026-05-04 08:29 33.76608 134.49570 17593 ft 347 kts
2026-05-04 08:29 33.78983 134.50085 17238 ft 345 kts
2026-05-04 08:31 33.95131 134.53642 14816 ft 333 kts
2026-05-04 08:33 34.10776 134.57115 12451 ft 321 kts
2026-05-04 08:33 34.12952 134.57596 12120 ft 320 kts
2026-05-04 08:35 34.24787 134.68025 10143 ft 296 kts 49°
2026-05-04 08:35 34.26073 134.69916 10073 ft 284 kts 49°
2026-05-04 08:35 34.27323 134.71735 9977 ft 280 kts 49°
2026-05-04 08:35 34.28561 134.73532 9673 ft 280 kts 49°
2026-05-04 08:37 34.35965 134.84271 8040 ft 274 kts 48°
2026-05-04 08:37 34.37180 134.86035 7778 ft 273 kts 48°
2026-05-04 08:37 34.38393 134.87797 7515 ft 272 kts 48°
2026-05-04 08:38 34.39600 134.89551 7256 ft 271 kts 48°
2026-05-04 08:38 34.40797 134.91292 6999 ft 270 kts 48°
2026-05-04 08:38 34.42002 134.93045 6741 ft 269 kts 48°
2026-05-04 08:40 34.50320 135.05179 4944 ft 266 kts 48°
2026-05-04 08:40 34.51489 135.06888 4693 ft 266 kts 48°
2026-05-04 08:40 34.52673 135.08618 4438 ft 266 kts 48°
2026-05-04 08:41 34.53846 135.10335 4186 ft 265 kts 48°
2026-05-04 08:41 34.55014 135.12045 4000 ft 261 kts 48°
2026-05-04 08:41 34.56148 135.13709 3978 ft 248 kts 48°
2026-05-04 08:41 34.57216 135.15276 3969 ft 236 kts 48°
2026-05-04 08:42 34.58230 135.16762 3963 ft 223 kts 47°
2026-05-04 08:42 34.59202 135.18187 3958 ft 211 kts 47°
2026-05-04 08:42 34.60052 135.19566 3941 ft 200 kts 65°
2026-05-04 08:42 34.60180 135.21162 3883 ft 192 kts 108°
2026-05-04 08:43 34.59556 135.22580 3623 ft 189 kts 127°
2026-05-04 08:43 34.58802 135.23860 3364 ft 186 kts 129°
2026-05-04 08:43 34.58049 135.25119 3188 ft 179 kts 129°
2026-05-04 08:43 34.57349 135.26317 3015 ft 170 kts 128°
2026-05-04 08:44 34.56693 135.27464 2878 ft 162 kts 128°
2026-05-04 08:44 34.56057 135.28592 2743 ft 163 kts 128°
2026-05-04 08:46 34.51520 135.36275 1356 ft 150 kts 169°
2026-05-04 08:46 34.50610 135.36108 1284 ft 133 kts 221°
2026-05-04 08:46 34.49983 135.35263 1310 ft 136 kts 235°
2026-05-04 08:46 34.49441 135.34431 1334 ft 137 kts 235°
2026-05-04 08:47 34.48851 135.33527 1359 ft 138 kts 235°
2026-05-04 08:47 34.48251 135.32617 1279 ft 138 kts 234°
2026-05-04 08:47 34.47651 135.31723 1193 ft 137 kts 234°
2026-05-04 08:47 34.47039 135.30817 1079 ft 137 kts 234°
2026-05-04 08:48 34.46442 135.29932 910 ft 137 kts 234°
2026-05-04 08:48 34.45843 135.29042 736 ft 136 kts 234°
2026-05-04 08:48 34.45243 135.28149 556 ft 136 kts 234°
2026-05-04 08:48 34.44642 135.27258 374 ft 135 kts 234°
2026-05-04 08:49 34.44065 135.26410 190 ft 125 kts 234°
2026-05-04 08:50 34.42784 135.24080 38 ft 19 kts 321°
2026-05-04 08:50 34.42866 135.23962 38 ft 18 kts 285°
2026-05-04 08:51 34.42898 135.23874 38 ft 4 kts 314°
2026-05-04 08:51 34.42905 135.23866 38 ft 0 kts 318°